sat.trackr.live / text

‹ back to catalog

STARLINK-37286

NORAD 68512 · 2026-068E

PAYLOAD ACTIVE UNKNOWN

§ Identity

Operator
Country
US
Launch date
2026-03-30
Launch site
AFETR
Launch vehicle
Mass (kg)
RCS (m²)

Purposes: comms

External: N2YO · Heavens-Above · Gunter

§ Orbital elements

Epoch: 2026-09-19T09:35:52.716480Z

Period
93.85 min
Inclination
53.1583°
Eccentricity
0.0001022
Mean motion
15.34375303 rev/d
Perigee alt
462.1 km
Apogee alt
463.5 km
Semi-major
6,840.9 km
B*
5.6374e-4
RAAN
298.6819°
Arg perigee
87.9711°
Mean anomaly
272.1409°
Rev number
2,675

§ Raw data

STARLINK-372861 68512U 26068E   26262.39991570  .00018703  00000+0  56374-3 0  99912 68512  53.1583 298.6819 0001022  87.9711 272.1409 15.34375303 26759

JSON: /api/v1/satellites/68512 · /tle

For live sub-satellite position, see the globe view (requires WebGL).

§ Visibility from observer

Set your observer location to see the next 7 days of passes ≥ 10°. The values pass through the URL so the page stays shareable.

No JS? Fill the form by hand. The geolocation button needs JavaScript.